TimeCST,TemperatureF,Dew PointF,Humidity,Sea Level PressureIn,VisibilityMPH,Wind Direction,Wind SpeedMPH,Gust SpeedMPH,PrecipitationIn,Events,Conditions,WindDirDegrees,DateUTC
6:00 AM,72,64,68,29.83,12,Calm,Calm,,,,Overcast,,2014-04-14 12:00:00
6:00 AM,73.4,64.4,73,29.80,-9999.0,Calm,Calm,-,N/A,,Clear,0,2014-04-14 12:00:00
7:00 AM,78.8,64.4,61,29.82,-9999.0,Calm,Calm,-,N/A,,Clear,0,2014-04-14 13:00:00
8:00 AM,82.4,64.4,54,29.85,-9999.0,Calm,Calm,-,N/A,,Clear,0,2014-04-14 14:00:00
9:00 AM,86,64,39,29.87,12,West,5.8,,,,Overcast,280,2014-04-14 15:00:00
9:00 AM,86.0,64.4,48,29.84,-9999.0,West,5.8,-,N/A,,Clear,280,2014-04-14 15:00:00
10:00 AM,91.4,64.4,41,29.84,6.2,ESE,6.9,-,N/A,,Overcast,110,2014-04-14 16:00:00
11:00 AM,93.2,64.4,38,29.83,6.2,ENE,8.1,-,N/A,,Mostly Cloudy,70,2014-04-14 17:00:00
12:00 PM,93,64,28,29.83,12,ESE,13.4,,,,Overcast,110,2014-04-14 18:00:00
12:00 PM,93.2,64.4,38,29.80,6.2,ESE,6.9,-,N/A,,Mostly Cloudy,110,2014-04-14 18:00:00
1:00 PM,95.0,62.6,34,29.76,6.2,ENE,4.6,-,N/A,,Mostly Cloudy,60,2014-04-14 19:00:00
2:00 PM,91.4,69.8,49,29.73,6.2,WNW,11.5,-,N/A,,Mostly Cloudy,290,2014-04-14 20:00:00
3:00 PM,92,68,36,29.71,12,West,12.7,,,,Overcast,270,2014-04-14 21:00:00
3:00 PM,91.4,68.0,46,29.70,6.2,West,12.7,-,N/A,,Mostly Cloudy,270,2014-04-14 21:00:00
4:00 PM,89.6,68.0,49,29.71,6.2,West,11.5,-,N/A,,Mostly Cloudy,280,2014-04-14 22:00:00
5:00 PM,87.8,68.0,52,29.72,6.2,WNW,9.2,-,N/A,,Mostly Cloudy,290,2014-04-14 23:00:00
6:00 PM,86,69,48,29.74,12,WNW,6.9,,,,Overcast,290,2014-04-15 00:00:00
6:00 PM,86.0,69.8,58,29.73,6.2,WNW,6.9,-,N/A,,Mostly Cloudy,290,2014-04-15 00:00:00
7:00 PM,84.2,69.8,62,29.75,6.2,WNW,4.6,-,N/A,,Mostly Cloudy,300,2014-04-15 01:00:00
8:00 PM,82.4,68.0,62,29.78,6.2,WNW,4.6,-,N/A,,Scattered Clouds,290,2014-04-15 02:00:00